Location: Fornova de Taro
(44.7000°N, 10.1000°E)
Time: 20:37:31
(UTC+00:00)

MSX - Pass Details

Date: 26 May 2022
Orbit: 896 x 905 km, 98.9° (Epoch: 02 July)

Event Time Altitude Azimuth Distance (km) Brightness Sun altitude
Rises 02:14:44 0° 11° (N) 3,534 8.0 -12.7°
Reaches altitude 10° 02:17:10 10° 9° (N) 2,590 7.1 -12.4°
Maximum altitude 02:22:52 65° 289° (WNW) 989 3.9 -11.7°
Enters shadow 02:27:58 13° 209° (SSW) 2,358 5.4 -11.1°
